Home   Weather   Dayton   Past weeks

Flag for USA Past Weather in Dayton, Ohio, USA — Yesterday and Last 2 Weeks

Now
67 °F

Passing clouds.


Feels Like: 67 °F
Forecast: 53 / 69 °F
Wind: 8 mph from West

Location: Dayton / Wright-Patterson Air Force Base

Current Time: Sep 26, 2016 at 4:54:28 PM

Latest Report: Sep 26, 2016 at 3:58 PM


Visibility: 10 mi

Pressure: 30.00 "Hg

Humidity: 54%

Dew Point: 50 °F

Location of DaytonLocation

Past Weather in Dayton — Graph

°F

Dayton Temperature Yesterday

Maximum temperature yesterday: 83 °F (at 4:58 PM)
Minimum temperature yesterday: 58 °F (at 6:58 AM)
Average temperature yesterday: 70 °F

High & Low Weather Summary for the Past Weeks

 TemperatureHumidityPressure
High88 °F (Sep 23, 2:58 PM)100% (Sep 14, 2:58 AM)30.24 "Hg (Sep 14, 2:58 AM)
Low54 °F (Sep 12, 4:58 AM)31% (Sep 20, 2:58 PM)29.92 "Hg (Sep 26, 4:58 AM)
Average70 °F76%30.10 "Hg
* Reported Sep 11 2:58 PM — Sep 26 2:58 PM, Dayton, Weather by CustomWeather, © 2016

Note: Actual official high and low records may vary slightly from our data, if they occured in-between our weather recording intervals... More about our weather records

Advertising

Dayton Weather History for the Previous 24 Hours

Scroll right to see more
 ConditionsComfort  
Time TempWeatherWind HumidityBarometerVisibility
2:58 PM
Mon, Sep 26
66 °FPartly sunny.14 mph62%30.01 "Hg10 mi
1:58 PM64 °FMostly cloudy.9 mph79%30.03 "Hg10 mi
12:58 PM61 °FCloudy.12 mph93%30.04 "Hg10 mi
11:58 AM62 °FLight rain. More clouds than sun.10 mph94%30.03 "Hg10 mi
10:58 AM62 °FLight rain. Mostly cloudy.No wind92%30.01 "Hg9 mi
9:58 AM62 °FCloudy.1 mph89%30.00 "Hg8 mi
8:58 AM65 °FMostly cloudy.14 mph82%30.01 "Hg10 mi
7:58 AM69 °FBroken clouds.10 mph91%29.95 "Hg7 mi
6:58 AM67 °FPassing clouds.1 mph92%29.92 "Hg10 mi
5:58 AM68 °FClear.6 mph90%29.92 "Hg10 mi
4:58 AM68 °FClear.5 mph87%29.92 "Hg10 mi
3:58 AM67 °FClear.1 mph88%29.94 "Hg10 mi
2:58 AM67 °FClear.3 mph87%29.96 "Hg10 mi
1:58 AM68 °FClear.5 mph77%29.99 "Hg10 mi
12:58 AM69 °FClear.1 mph72%30.00 "Hg8 mi
11:58 PM
Sun, Sep 25
70 °FClear.No wind70%30.01 "Hg7 mi
10:58 PM71 °FMild.N/A69%30.02 "HgN/A
9:58 PM70 °FClear.3 mph81%30.04 "Hg7 mi
8:58 PM73 °FClear.2 mph74%30.03 "Hg10 mi
7:58 PM77 °FPassing clouds.5 mph65%30.03 "Hg10 mi
6:58 PM81 °FPassing clouds.5 mph54%30.03 "Hg10 mi
5:58 PM82 °FPassing clouds.2 mph50%30.03 "Hg10 mi
4:58 PM83 °FPassing clouds.1 mph49%30.04 "Hg10 mi
Weather by CustomWeather, © 2016

See weather overviewHow to use our weather pages